Back to catalog

SL-14 R/B

AlivePO
NORAD 15332·ROCKET BODY·🇷🇺 Russia

Launched Sep 28, 1984 from Plesetsk Cosmodrome

Loading…

Next Passes (next 24 hours)

TLE

FreshSource: Space-Track

Epoch: Sep 14, 2026, 07:44 UTC

1 15332U 84105B   26257.32252410  .00000295  00000-0  30870-4 0  9991
2 15332  82.5299 268.5056 0020706  28.6039 342.0446 14.85974749246234

Track SL-14 R/B in real time with AllMySat

Download on the App Store